Torna al catalogo

COSMOS 1275 DEB

AttivoPO
NORAD 12695·DEBRIS·🇷🇺 Russia

Lanciato Jun 4, 1981 da Plesetsk Cosmodrome

Loading…

Prossimi Passaggi (prossime 24 ore)

TLE

AggiornatoSource: Space-Track

Epoca: Sep 14, 2026, 19:32 UTC

1 12695U 81053AP  26257.81430888  .00000798  00000-0  78920-3 0  9995
2 12695  83.0128 195.9950 0105120 141.0244 247.3070 13.74837144241394

Traccia COSMOS 1275 DEB in tempo reale con AllMySat

Download on the App Store